Location: Remedello Sotto
(45.2500°N, 10.3667°E)
Time: 05:58:42
(UTC+00:00)

CZ-4B DEB - Pass Details

Date: 05 August 2024
Orbit: 835 x 857 km, 99.0° (Epoch: 19 September)

Event Time Altitude Azimuth Distance (km) Brightness Sun altitude
Rises 19:03:51 0° 179° (S) 3,403 7.0 -4.6°
Reaches altitude 10° 19:06:17 10° 185° (S) 2,474 6.4 -4.9°
Maximum altitude 19:11:36 50° 260° (W) 1,088 5.2 -5.7°
Drops below altitude 10° 19:16:59 10° 335° (NNW) 2,501 7.6 -6.6°
Sets 19:19:28 0° 341° (NNW) 3,443 8.3 -6.9°
